Location: Aranbee
(34.0885°N, 118.2342°W)
Time: 04:32:08
(UTC+00:00)

Courier 1B - Pass Details

Date: 30 November 2020
Orbit: 962 x 1209 km, 28.3° (Epoch: 17 January)

Event Time Altitude Azimuth Distance (km) Brightness Sun altitude
Exits shadow 11:27:37 14° 171° (S) 2,812 9.9 -39.3°
Drops below altitude 10° 11:29:01 10° 162° (SSE) 3,110 10.3 -39.0°
Sets 11:32:45 0° 147° (SSE) 4,090 11.1 -38.2°
